{"data":{"norad_id":61890,"intl_designator":"2024-204S","name":"STARLINK-32501","alt_names":[],"object_type":"PAYLOAD","status":"ACTIVE","operator":null,"country":"US","launch_date":"2024-11-09","launch_site_code":"AFWTR","launch_vehicle":null,"mission":null,"orbit_class":"UNKNOWN","rcs_meters":null,"size_class":null,"mass_kg":null,"dimensions":null,"purposes":["comms"],"wikipedia_slug":null,"has_3d_model":false,"image_url":null,"decayed_at":null,"tle_current":{"epoch":"2026-09-21T03:43:10.084512Z","epoch_age_seconds":131976,"freshness":"FRESH","line1":"1 61890U 24204S   26264.15497783  .00002191  00000+0  76004-4 0  9993","line2":"2 61890  53.1609 294.9455 0001256  66.3272 293.7862 15.34386729105087","mean_motion":15.34386729,"eccentricity":0.0001256,"inclination_deg":53.1609,"raan_deg":294.9455,"arg_perigee_deg":66.3272,"mean_anomaly_deg":293.7862,"bstar":7.6004e-5,"rev_number":10508,"period_min":93.848569776049,"perigee_km":461.88347021174,"apogee_km":463.60189918853,"semimajor_km":6840.8796847001,"source":"CELESTRAK","updated_at":"2026-09-22T09:00:49.447833Z"}}}